• Join FlightAware (Why Join?)
  • Login
  • US Flag 
07:37AM EST


 

Airport Tracker/Info


-or-


 

Live Flight TrackerFlight Track Log ✈ N559LC ✈ 28-Mar-2014 ✈ KDTW - KSDF

Flight Track Log - Related Links

Times and Time Zones

All times are in EDT time to prevent confusion due to time zone crossing. See the N559LC flight status page for this flight to view local times or setup timezone preferences in your user account.

Time Position Orientation Groundspeed Altitude Reporting Facility
EDT Latitude Longitude Course Direction KTS MPH feet Rate Location/Type
10:14AM 42.1992 -83.3492 208° Southwest 133 153 1,500  Level Cleveland Center
10:15AM 42.1392 -83.3914 208° Southwest 233 268 5,100 3,429 Climbing Cleveland Center
10:16AM 42.0981 -83.4125 201° Southwest 226 260 8,300 4,230 Climbing Cleveland Center
10:16AM 42.0761 -83.4192 193° South 254 292 9,400 2,226 Climbing Cleveland Center
10:17AM 42.0272 -83.4369 195° South 256 295 10,600 2,202 Climbing Cleveland Center
10:18AM 41.9397 -83.4692 195° South 319 367 13,400 2,758 Climbing Cleveland Center
10:19AM 41.8583 -83.4981 195° South 323 372 16,300 3,220 Climbing Cleveland Center
10:20AM 41.7439 -83.5389 195° South 351 404 20,000 3,317 Climbing Cleveland Center
10:21AM 41.6422 -83.5742 195° South 372 428 23,100 3,145 Climbing Cleveland Center
10:22AM 41.5439 -83.6097 195° South 369 425 26,500 2,371 Climbing Cleveland Center
10:23AM 41.4439 -83.6447 195° South 369 425 28,000 726 Climbing Cleveland Center
10:24AM 41.3394 -83.6803 194° South 384 442 28,000  Level Cleveland Center
10:25AM 41.2389 -83.7161 195° South 379 436 28,000  Level Cleveland Center
10:26AM 41.1400 -83.7508 195° South 375 432 28,000  Level Cleveland Center
10:27AM 41.0314 -83.7889 195° South 367 422 28,000  Level Indianapolis Center
10:28AM 40.9317 -83.8228 194° South 368 423 28,000  Level Indianapolis Center
10:29AM 40.8306 -83.8583 195° South 373 429 28,000  Level Indianapolis Center
10:30AM 40.7089 -83.9000 195° South 374 430 28,000  Level Indianapolis Center
10:31AM 40.6069 -83.9342 194° South 375 432 28,000 -629 Level Indianapolis Center
10:32AM 40.5058 -83.9700 195° South 376 433 26,700 -968 Descending Indianapolis Center
10:33AM 40.4064 -84.0028 194° South 375 432 26,000 -339 Descending Indianapolis Center
10:34AM 40.3064 -84.0372 195° South 375 432 26,000  Level Indianapolis Center
10:35AM 40.1933 -84.0936 201° Southwest 369 425 26,000  Level Indianapolis Center
10:36AM 40.0981 -84.1444 202° Southwest 369 425 26,000  Level Indianapolis Center
10:37AM 40.0031 -84.1939 202° Southwest 369 425 26,000  Level Indianapolis Center
10:38AM 39.9078 -84.2431 202° Southwest 369 425 26,000  Level Indianapolis Center
10:39AM 39.8122 -84.2942 202° Southwest 370 426 26,000  Level Indianapolis Center
10:40AM 39.6964 -84.3531 201° Southwest 371 427 26,000 -194 Level Indianapolis Center
10:41AM 39.6003 -84.4031 202° Southwest 372 428 25,600 -968 Descending Indianapolis Center
10:42AM 39.5036 -84.4522 201° Southwest 372 428 24,000 -1,645 Descending Indianapolis Center
10:44AM 39.4103 -84.5014 202° Southwest 371 427 22,200 -1,597 Descending Indianapolis Center
10:45AM 39.3183 -84.5481 201° Southwest 362 417 20,700 -1,452 Descending Indianapolis Center
10:46AM 39.2272 -84.5958 202° Southwest 358 412 19,200 -1,403 Descending Indianapolis Center
10:47AM 39.1178 -84.6508 201° Southwest 357 411 17,800 -1,113 Descending Indianapolis Center
10:48AM 39.0269 -84.6981 202° Southwest 355 409 16,900 -823 Descending Indianapolis Center
10:49AM 38.9492 -84.7678 215° Southwest 345 397 16,100 -823 Descending Indianapolis Center
10:50AM 38.8803 -84.8350 217° Southwest 335 386 15,200 -919 Descending Indianapolis Center
10:51AM 38.7897 -84.9228 217° Southwest 337 388 14,200 -919 Descending Indianapolis Center
10:52AM 38.7169 -84.9939 217° Southwest 335 386 13,300 -919 Descending Indianapolis Center
10:53AM 38.6436 -85.0628 216° Southwest 329 379 12,300 -629 Descending Indianapolis Center
10:54AM 38.5711 -85.1342 218° Southwest 329 379 12,000 -726 Descending Indianapolis Center
10:55AM 38.5297 -85.2203 238° Southwest 302 348 10,800 -1,113 Descending Indianapolis Center
10:56AM 38.5092 -85.3078 253° West 274 315 9,700 -1,113 Descending Indianapolis Center
10:57AM 38.4828 -85.4083 251° West 257 296 8,500 -1,065 Descending Indianapolis Center
10:58AM 38.4617 -85.4903 252° West 249 287 7,500 -919 Descending Indianapolis Center
10:59AM 38.4381 -85.5700 249° West 244 281 6,600 -871 Descending Indianapolis Center
11:00AM 38.4172 -85.6467 251° West 233 268 5,700 -871 Descending Indianapolis Center
11:01AM 38.3981 -85.7244 253° West 232 267 4,800 -823 Descending Indianapolis Center
11:02AM 38.3647 -85.7831 234° Southwest 229 264 4,000 -774 Descending Indianapolis Center
11:03AM 38.3150 -85.7736 172° South 218 251 3,200 -823 Descending Indianapolis Center
11:04AM 38.2706 -85.7589 165° South 189 217 2,300 -871 Descending Indianapolis Center
11:07AM 38.1741 -85.7365 170° South  Level Estimated